Regional Weather Roundup
Issued by NWS Cleveland, OH

Home | Current Version | Previous Version | Text Only | Print | Product List | Glossary Off
Versions: 1 2 3 4 5 6 7 8 9 10 11 12 13 14 15 16 17 18 19 20 21 22 23 24 25 26 27 28 29 30 31 32 33 34 35 36 37 38 39 40 41 42 43 44 45 46 47 48 49 50

000
ASUS41 KCLE 021610
RWRCLE
OHIO REGIONAL WEATHER ROUNDUP
NATIONAL WEATHER SERVICE CLEVELAND, OH
1100 AM EST FRI DEC 02 2016

NOTE: "FAIR" INDICATES FEW OR NO CLOUDS BELOW 12,000 FEET WITH NO
SIGNIFICANT WEATHER AND/OR OBSTRUCTIONS TO VISIBILITY.

OHZ001>008-015>018-024>027-034-035-043-044-021700-
   NORTHWEST OHIO

CITY           SKY/WX    TMP DP  RH WIND       PRES   REMARKS
DEFIANCE       CLOUDY    39  33  79 W8        30.11S
FINDLAY        CLOUDY    38  32  79 W16G23    30.11R
TOLEDO EXPRESS PTSUNNY   39  34  82 W18       30.08R
TOLEDO EXEC    CLOUDY    41  34  76 W20       30.09R
LIMA           CLOUDY    36  34  92 W13       30.13R
$$

OHZ009>014-019>023-028>033-038-089-021700-
   NORTHEAST OHIO

CITY           SKY/WX    TMP DP  RH WIND       PRES   REMARKS
CLE-HOPKINS    CLOUDY    40  30  67 W15       30.09R
CLE-LAKEFRONT  CLOUDY    40  32  73 SW20      30.05S
CUY CO. ARPT   CLOUDY    41  34  75 W14       30.05R
LORAIN-ELYRIA  CLOUDY    38  30  73 W13       30.08R
ASHTABULA      CLOUDY    36  34  92 SW14      30.02R
AKRON-CANTON   CLOUDY    38  28  67 W13G24    30.07R
WOOSTER        CLOUDY    38  28  67 W18G25    30.08R
MANSFIELD      CLOUDY    37  30  75 W13G24    30.07S
YOUNGSTOWN     CLOUDY    38  30  73 W12       30.03S
$$

OHZ042-051>053-060>062-070>072-077>081-021700-
  SOUTHWEST OHIO

CITY           SKY/WX    TMP DP  RH WIND       PRES   REMARKS
CINC-COVINGTON CLOUDY    37  30  75 SW6       30.20R
CINC-LUNKEN    CLOUDY    40  30  67 W7        30.23R
HAMILTON       CLOUDY    40  29  64 W7        30.21R
DAYTON         CLOUDY    37  31  78 W14       30.17R
WRIGHT-PAT AFB CLOUDY    38  31  76 W10       30.16R
DAYTON GENERAL CLOUDY    37  29  72 W8        30.16S
WILMINGTON     CLOUDY    35  30  82 W8        30.17R WCI  29
$$

OHZ036-037-039>041-045>050-054>059-063>069-073>076-082>088-021700-
  CENTRAL AND SOUTHEAST OHIO

CITY           SKY/WX    TMP DP  RH WIND       PRES   REMARKS
COLUMBUS       CLOUDY    38  32  79 W12       30.15R
OSU AIRPORT    CLOUDY    38  32  79 W14       30.14R
BOLTON FIELD   CLOUDY    37  32  81 W8        30.16R
RICKENBACK AFB CLOUDY    36  32  85 W7        30.16S
NEWARK         CLOUDY    38  29  70 W10       30.14R
MARION         CLOUDY    37  31  78 W13       30.12R
LANCASTER      CLOUDY    37  32  82 W9        30.16R
ZANESVILLE     CLOUDY    39  29  67 W15       30.14R
NEW PHILLY     CLOUDY    38  30  73 W9        30.11S
$$




USA.gov is the U.S. government's official web portal to all federal, state and local government web resources and services.